Location: Gleizolles
(44.4833°N, 6.7667°E)
Time: 17:11:53
(UTC+00:00)

Altair - Pass Details

Date: 02 July 2024
Orbit: 1502 x 1681 km, 47.2° (Epoch: 13 July)

Event Time Altitude Azimuth Distance (km) Brightness Sun altitude
Rises 20:43:41 0° 199° (SSW) 4,644 9.7 -11.8°
Reaches altitude 10° 20:47:12 10° 189° (S) 3,653 9.1 -12.2°
Maximum altitude 20:54:43 30° 133° (SE) 2,449 8.0 -13.0°
Drops below altitude 10° 21:02:15 10° 77° (ENE) 3,669 9.3 -13.8°
Sets 21:05:45 0° 67° (ENE) 4,668 9.9 -14.2°
